Regional Weather Roundup
Issued by NWS

Home | Current Version | Previous Version | Graphics & Text | Print | Product List | Glossary On
Versions: 1 2 3 4 5 6 7 8 9 10 11 12 13 14 15 16 17 18 19 20 21 22 23 24 25 26 27 28 29 30 31 32 33 34 35 36 37 38 39 40 41 42 43 44 45 46 47 48 49 50
000
ASUS43 KOAX 231910
RWRNE

WEATHER ROUNDUP FOR NEBRASKA
NATIONAL WEATHER SERVICE OMAHA NE
200 PM CDT MON APR 23 2018

NOTES: SATELLITE DATA IS BEING USED TO AUGMENT CLOUD COVER ABOVE
       12000 FEET.
       "FAIR" INDICATES FEW OR NO CLOUDS BELOW 12,000 FEET WITH NO
       SIGNIFICANT WEATHER AND/OR OBSTRUCTIONS TO VISIBILITY.


NEZ001>004-019>022-054>056-232000-
NEBRASKA PANHANDLE

CITY           SKY/WX    TMP DP  RH WIND       PRES   REMARKS
SCOTTSBLUFF    SUNNY     68  42  38 SE20G25   30.02F
ALLIANCE       MOSUNNY   63  40  42 S23       30.06F
CHADRON        SUNNY     68  40  35 SE17      30.01F
GORDON         FAIR      65  41  41 S14G20    30.06F
KIMBALL        MOSUNNY   63  37  37 S18       30.06F
SIDNEY         PTSUNNY   63  40  42 S18G24    30.07F
$$

NEZ057>060-069>072-079>082-232000-
SOUTHWEST NEBRASKA

CITY           SKY/WX    TMP DP  RH WIND       PRES   REMARKS
NORTH PLATTE   SUNNY     67  42  40 S8G20     30.11F
IMPERIAL       SUNNY     64  39  39 SE14G22   30.10F
LEXINGTON      MOSUNNY   66  40  37 S13       30.13F
MCCOOK         SUNNY     66  42  41 S12G20    30.12F
OGALLALA       SUNNY     64  39  39 S12G20    30.11F
$$

NEZ005>010-023>029-035>040-094-232000-
NORTH CENTRAL NEBRASKA

CITY           SKY/WX    TMP DP  RH WIND       PRES   REMARKS
VALENTINE      MOSUNNY   68  38  33 S16G26    30.11F
AINSWORTH      MOSUNNY   64  41  42 S12       30.12F
BROKEN BOW     MOSUNNY   66  39  37 SE13G20   30.13F
O`NEILL        PTSUNNY   71  35  26 SE10G17   30.14F
ORD            PTSUNNY   68  37  32 S9        30.12F
THEDFORD       PTSUNNY   66  40  38 S13       30.13F
$$

NEZ041-046>049-061>064-073>077-083>087-232000-
SOUTH CENTRAL NEBRASKA

CITY           SKY/WX    TMP DP  RH WIND       PRES   REMARKS
GRAND ISLAND   SUNNY     67  39  35 E10       30.14F
AURORA         PTSUNNY   66  35  32 CALM      30.13F
HASTINGS       SUNNY     64  38  38 S5        30.14F
HEBRON         SUNNY     70  35  27 CALM      30.12F
HOLDREGE       MOSUNNY   65  39  37 SE12G18   30.13F
KEARNEY        SUNNY     67  39  35 E12       30.14F
YORK             N/A     70  36  28 CALM      30.13F
$$

NEZ011>018-030>034-042>045-232000-
NORTHEAST NEBRASKA

CITY           SKY/WX    TMP DP  RH WIND       PRES   REMARKS
NORFOLK        SUNNY     69  32  25 VRB6      30.13F
ALBION         SUNNY     69  37  31 SE3G16    30.14F
BLAIR          SUNNY     71  32  23 NE3G16    30.13F
COLUMBUS       SUNNY     69  36  29 SE9       30.14F
FREMONT        SUNNY     70  29  21 CALM      30.15F
TEKAMAH        SUNNY     71  27  19 VRB3G18   30.13F
WAYNE          SUNNY     70  30  22 E5        30.14F
$$

NEZ050>053-065>068-078-088>093-232000-
SOUTHEAST NEBRASKA

CITY           SKY/WX    TMP DP  RH WIND       PRES   REMARKS
LINCOLN        SUNNY     72  30  21 NE7       30.14F
OMAHA EPPLEY   MOSUNNY   73  29  19 NE9       30.12F
BEATRICE       SUNNY     72  34  24 E13G18    30.12F
FALLS CITY     SUNNY     73  32  22 VRB7G17   30.09F
NEBRASKA CITY  SUNNY     71  31  22 NE3G9     30.11F
PLATTSMOUTH    SUNNY     72  28  19 NE10      30.12F
$$

NEZ044-045-051>053-067-232000-
OMAHA AREA

CITY           SKY/WX    TMP DP  RH WIND       PRES   REMARKS
OMAHA EPPLEY   MOSUNNY   73  29  19 NE9       30.12F
BLAIR          SUNNY     71  32  23 NE3G16    30.13F
FREMONT        SUNNY     70  29  21 CALM      30.15F
MILLARD        SUNNY     70  32  24 E3        30.13F
PLATTSMOUTH    SUNNY     72  28  19 NE10      30.12F
WAHOO          FAIR      72  23  16 E7        30.13F
$$




USA.gov is the U.S. government's official web portal to all federal, state and local government web resources and services.